Location: La Brionne
(46.1728°N, 1.7849°E)
Time: 00:19:31
(UTC+00:00)

Cosmos 1867 - Visible Passes

Search period start: 24 October 2021 00:00
Search period end: 03 November 2021 00:00
Orbit: 773 x 803 km, 65.0° (Epoch: 23 October)

Date Brightness Start Highest point End Pass type
(mag) Time Alt. Az. Time Alt. Az. Time Alt. Az.
24 Oct 4.2 05:43:52 10° SSW 05:49:14 63° ESE 05:54:40 10° NE visible
25 Oct 4.7 05:12:25 10° S 05:17:36 47° ESE 05:22:52 10° NE visible
26 Oct 5.2 04:41:08 10° S 04:46:02 35° ESE 04:50:59 10° NE visible
27 Oct 5.6 04:10:01 10° SSE 04:14:29 27° ESE 04:19:00 10° ENE visible
27 Oct 3.7 05:52:23 10° SW 05:57:45 57° NW 06:03:10 10° NNE visible
28 Oct 5.9 03:39:08 10° SSE 03:42:59 20° ESE 03:46:51 10° ENE visible
28 Oct 3.5 05:20:33 10° SW 05:26:00 73° NW 05:31:31 10° NNE visible
29 Oct 6.2 03:08:39 10° SE 03:11:31 15° ESE 03:14:23 10° ENE visible
29 Oct 3.6 04:48:50 10° SSW 04:54:17 87° SE 04:59:49 10° NE visible
30 Oct 6.4 02:39:39 10° ESE 02:40:04 10° ESE 02:40:30 10° E visible
30 Oct 3.9 04:19:17 24° SSW 04:22:37 67° ESE 04:28:05 10° NE visible
31 Oct 4.3 03:49:36 40° SSE 03:51:00 50° ESE 03:56:17 10° NE visible
31 Oct 4.3 05:30:20 12° WSW 05:34:47 34° NW 05:39:48 10° NNE visible
01 Nov 4.8 03:19:42 37° ESE 03:19:42 37° ESE 03:24:26 10° NE visible
01 Nov 4.0 05:00:25 26° W 05:02:57 43° NW 05:08:11 10° NNE visible
02 Nov 5.7 02:49:39 23° E 02:49:39 23° E 02:52:28 10° NE visible
02 Nov 3.7 04:30:21 49° W 04:31:09 54° NW 04:36:33 10° NNE visible
